721  
ASUS46 KPDT 281625  
RWRPDT  
PENDLETON REGIONAL WEATHER ROUNDUP  
NATIONAL WEATHER SERVICE PENDLETON OREGON  
900 AM PDT SUN MAY 28 2017  
 
NOTE: FAIR INDICATES FEW OR NO CLOUDS BELOW 12,000 FEET WITH NO  
SIGNIFICANT WEATHER AND/OR S TO VISIBILITY
.  
 
# INDICATES UNOFFICIAL STATION AND DATA  
 
WAZ520-281710-  
EAST SLOPES OF WASHINGTON CASCADES  
 
CITY SKY/WX TMP DP RH WIND PRES REMARKS
 
#BULLFROG N/A 63 47 56 CALM N/A  
#CLE ELUM HS N/A 66 48 52 CALM 30.09F  
#CLE ELUM LAKE N/A 64 50 60 CALM 30.13S  
#ELK HTS DOT N/A 63 63 100 N2 N/A  
#GLENWOOD N/A 60 51 72 CALM 30.09F  
#NELSON 3SW N/A 62 50 65 CALM 30.27F  
#NILE N/A 63 47 56 W1 29.40F  
#TEANAWAY 4NE N/A 62 53 72 CALM N/A  
#TROUT LAKE 1NE N/A 67 51 56 CALM 30.08S  
#TROUT LAKE 1E N/A 63 49 60 CALM 30.17S  

 
 
WAZ521-281710-  
SIMCOE HIGHLANDS  
 
CITY SKY/WX TMP DP RH WIND PRES REMARKS
 
#BICKLETON HS N/A 73 47 40 E5 30.13R  
#CENTERVILLE 1SWN/A 66 49 54 CALM 30.03F  
#GOLDENDALE 1NE N/A 66 36 33 CALM N/A  
#GOLDENDALE 4W N/A 73 17 12 CALM 30.16S  
#GOODNOE HILLS N/A 76 49 39 SE3 N/A  
#LYLE 6NE N/A 65 49 56 N1 30.03S  
#PITT 4SE N/A 69 48 47 NE1 30.08S  

 
 
WAZ026-281710-  
KITTITAS VALLEY  
 
CITY SKY/WX TMP DP RH WIND PRES REMARKS
 
ELLENSBURG AP SUNNY 65 49 56 CALM 30.16S  
YTC-OPS AREA SUNNY 71 40 32 E5 30.21R  
#ELLENSBURG CWU N/A 66 50 56 CALM 30.03F  
#ELLENSBURG 3NE N/A 62 51 67 CALM 28.23F  
#KITTITAS 4N N/A 67 51 56 SW1 30.17S  
#KITTITAS 3S N/A 60 51 72 CALM 30.10F  
#MANASTASH RDG N/A 66 66 100 N5 N/A  
#ROCKY CYN DOT N/A 68 49 51 NW6 N/A  
#RYEGRASS DOT N/A 66 46 48 S6 N/A  
#THORP 6N N/A 64 49 58 CALM 30.09F  

 
 
WAZ027-281710-  
YAKIMA VALLEY  
 
CITY SKY/WX TMP DP RH WIND PRES REMARKS
 
SUNNYSIDE AP SUNNY 66 48 52 CALM 30.12S  
YAKIMA AIRPORT SUNNY 71 50 47 W7 30.14S  
YAKIMA-VAGABOND SUNNY 70 45 41 N6 30.12S  
#DONALD 2NE N/A 79 18 10 S2 28.97S  
#GRANDVIEW N/A 69 45 42 CALM 30.10S  
#MABTON N/A 68 51 55 CALM 30.11S  
#MOXEE 2E N/A 69 N/A N/A N2 30.08F  
#NACHES 2SW N/A 69 52 55 W1 30.15S  
#OUTLOOK DOT N/A 67 48 50 W1 30.09S  
#PARKER DOT N/A 72 46 39 SE6 30.12R  
#TERRACE HTS N/A 66 49 54 CALM 30.05S  
#TOPPENISH N/A 70 50 49 N2 30.01S  
#I82 S UMTANUM RN/A 72 48 43 SW1 N/A  
#UNION GAP DOT N/A 69 46 44 NW5 30.15S  
#WEST VALLEY N/A 70 49 47 CALM 30.07F  
#W YAKIMA N/A 70 50 49 NW3 30.07F  
#WHITE SWAN 5E N/A 71 54 55 CALM 30.09S  
#WILEY CITY 3W N/A 72 46 39 CALM 30.11S  
#ZILLAH DOT N/A 69 47 45 W5 N/A  

 
 
WAZ028-281710-  
LOWER COLUMBIA BASIN...WASHINGTON  
 
CITY SKY/WX TMP DP RH WIND PRES REMARKS
 
HANFORD SUNNY 73 42 33 SW3 30.10S  
PASCO SUNNY 68 49 51 CALM 30.12S  
PROSSER AWOS N/A 70 48 46 CALM 30.15S  
RICHLAND AWOS SUNNY 72 49 44 CALM 30.11F  
#BASIN CITY 5SW N/A 72 55 55 E5 30.08S  
#BENTON CITY N/A 70 48 46 CALM 30.00S  
#CONNELL 5N N/A 73 51 46 NE5 30.08F  
#CONNELL 5NW N/A 71 51 49 E3 30.03S  
#ELTOPIA 6NW N/A 73 53 49 CALM 29.08S  
#KAHLOTUS N/A 67 50 54 SE7 30.07F  
#KENNEWICK 3S N/A 67 53 61 CALM 30.09R  
#PATERSON N/A 64 51 63 SW1 30.09R  
#PROSSER DOT N/A 72 46 39 CALM 30.13R  
#SAGEMOOR 2W N/A 68 51 55 E2 29.95S  
#TOUCHET 2S N/A 64 57 78 CALM 30.07S  
#WEST PASCO N/A 69 53 57 CALM 30.12S  

 
 
WAZ029-281710-  
FOOTHILLS OF THE BLUES...WASHINGTON  
 
CITY SKY/WX TMP DP RH WIND PRES REMARKS
 
WALLA WALLA AP SUNNY 73 49 43 N5 30.12R  
#CLYDE 6NW N/A 71 50 47 E2 30.06S  
#DAYTON SCHOOL N/A 73 40 30 S2 30.14S  
#DELANEY DOT N/A 70 50 49 W1 30.13S  
#LOWDEN 2SE N/A 67 56 68 W1 30.07S  
#PLEASANT VIEW 1N/A 66 52 61 N1 30.10R  
#PRESCOTT N/A 74 54 50 CALM 30.07S  
#WHITMAN COLLEGEN/A 71 52 51 N2 30.11S  
#WAITSBURG 6SSE N/A 75 52 45 NW2 30.07F  
#WAITSBURG 8N N/A 86 N/A N/A S5 30.14R  
#WALLA WALLA 5E N/A 74 57 55 W3 N/A  
#WHITMAN MISSIONN/A 66 57 73 CALM 30.09F  

 
 
WAZ030-281710-  
BLUE MOUNTAINS...WASHINGTON  
 
CITY SKY/WX TMP DP RH WIND PRES REMARKS
 
#DIXIE 5SE N/A 71 43 36 W2 30.11S  

 
 
ORZ009-041-WAZ024-281710-  
COLUMBIA RIVER GORGE  
 
CITY SKY/WX TMP DP RH WIND PRES REMARKS
 
HOOD RIVER AP SUNNY 68 46 45 CALM 30.11F  
THE DALLES AP SUNNY 68 50 53 CALM 30.11S  
#ARLINGTON AIRPON/A 68 47 47 CALM 30.09R  
#CELILO DOT N/A 65 47 52 SW2 N/A  
#LYLE N/A 64 49 58 W3 30.10S  
#MARYHILL N/A 67 48 50 N2 29.97S  
#MURDOCK N/A 66 50 56 W1 30.06F  
#RUFUS DOT N/A 63 47 56 NW5 N/A  
#SMITHVILLE N/A 66 50 56 N3 30.04F  
 

 
 
ORZ510-281710-  
NORTH CENTRAL OREGON  
 
CITY SKY/WX TMP DP RH WIND PRES REMARKS
 
#ANTELOPE N/A 66 46 48 SW2 29.92S  
#CHENOWITH 1W N/A 51 35 54 NW14 N/A  
#DUFUR N/A 72 47 41 CALM 30.04S  
#DUFUR 9E N/A 70 48 46 CALM 30.09S  
#GRASS VALLEY 1SN/A 75 45 34 CALM 30.16R  
#KENT DOT N/A 72 41 33 E3 N/A  
#MAUPIN SCHOOL N/A 68 50 53 CALM 30.16F  
#MORO SCHOOL N/A 75 49 40 CALM 30.21S  
#SHANIKO 5WSW N/A 72 37 28 N2 N/A  
#SHANIKO 4NW N/A 71 39 31 E7 30.19R  
#TYGH VALLEY 2NEN/A 64 46 52 CALM 30.08S  
#WAPANITIA AIRPON/A 69 44 40 CALM 30.08F  
#WASCO DOT N/A 71 46 41 NW2 N/A  
#WASCO 5NE N/A 71 48 44 CALM 30.07R  

 
 
ORZ511-281710-  
CENTRAL OREGON  
 
CITY SKY/WX TMP DP RH WIND PRES REMARKS
 
BEND AIRPORT SUNNY 68 37 32 CALM 30.14F  
MADRAS AIRPORT SUNNY 66 41 40 CALM 30.19R  
PRINEVILLE AP SUNNY 68 39 35 CALM 30.19F  
REDMOND AIRPORT SUNNY 67 35 30 SE3 30.18S  
#ASHWOOD SCHOOL N/A 67 44 43 CALM 30.11S  
#BEND 1SW N/A 65 42 43 NE2 N/A  
#BEND-AWBREY N/A 65 40 40 CALM 30.03F  
#BEND-KIM LN N/A 68 42 39 N2 29.99S  
#CULVER N/A 68 45 44 CALM 29.99F  
#CULVER 8W N/A 76 34 22 E3 30.15F  
#MADRAS 4S N/A 67 15 13 CALM N/A  
#POWELL BUTTE N/A 64 40 41 N2 30.13S  
#PRINEVILLE N/A 63 42 46 CALM 30.14F  
#PRINEVILLE 3N N/A 63 47 56 W3 30.07F  
#WARM SPRINGS N/A 69 45 42 CALM 29.96S  
 

 
 
 
ORZ509-281710-  
EAST SLOPES OF OREGON CASCADES  
 
CITY SKY/WX TMP DP RH WIND PRES REMARKS
 
SISTERS AWOS N/A 68 39 35 E5 30.14F  
#CAMP SHERMAN N/A 61 42 50 CALM 30.15F  
#LA PINE 4SW N/A 63 41 44 CALM 30.21S  
#LA PINE 4NW N/A 60 42 51 CALM 30.11S  
#LAVA BUTTE DOT N/A 62 40 44 CALM N/A  
#SISTERS 3N N/A 72 48 43 CALM 30.17S  
#SUNRIVER N/A 63 46 54 CALM 30.06F  
#TUMALO 3W N/A 66 39 37 N2 29.91S  
#WANOGA BUTTE D N/A 60 28 29 E8 N/A  
 

 
 
ORZ044-281710-  
LOWER COLUMBIA BASIN...OREGON  
 
CITY SKY/WX TMP DP RH WIND PRES REMARKS
 
HERMISTON SUNNY 69 46 44 NW3 30.11S  
#BOARDMAN SCHOOLN/A 65 47 52 N1 30.10S  
#BOARDMAN 8SW N/A 70 48 46 N2 30.08S  
#ECHO 8SW N/A 71 50 47 N2 30.12S  
#IONE SCHOOL N/A 74 42 32 CALM 30.08F  
#UMATILLA N/A 66 48 52 CALM 30.02F  

 
 
ORZ507-281710-  
NORTHERN FOOTHILLS OF THE BLUES  
 
CITY SKY/WX TMP DP RH WIND PRES REMARKS
 
PENDLETON AIRPT SUNNY 69 50 51 VRB5 30.12S  
#ADAMS 3WNW N/A 72 50 46 CALM 30.08S  
#ATHENA N/A 74 48 40 CALM 30.09S  
#CAYUSE N/A 70 51 51 E3 30.06S  
#HELIX SCHOOL N/A 70 48 46 S3 30.07S  
#HELIX 3N N/A 71 47 42 S6 30.10S  
#HOLDMAN 5SE N/A 72 48 43 CALM 30.11S  
#HOLDMAN 6E N/A 70 49 47 SE2 29.88R  
#M-F FERNDALE N/A 62 55 78 CALM 30.07R  
#M-FREEWATER 5SEN/A 73 54 51 NE1 30.11R  
#PENDLETON DNTN N/A 70 53 55 CALM 30.10S  
#PDT AQUATIC CTRN/A 65 50 58 CALM 30.14S  
#PDT SUNRIDGE N/A 70 52 53 CALM 30.13F  
#PENDLETON 7NW N/A 75 55 50 W2 32.21S  
#PILOT ROCK 1S N/A 74 46 37 CALM 30.13S  
#PILOT ROCK N/A 72 49 44 CALM 30.14S  
#TUTUILLA N/A 72 58 61 CALM 30.10F  
#UMAPINE 2E N/A 68 57 68 CALM 30.08S  
#WESTON SCHOOL N/A 73 41 31 SW5 30.07S  
 

 
 
ORZ508-281710-  
SOUTHERN FOOTHILLS OF THE BLUES  
 
CITY SKY/WX TMP DP RH WIND PRES REMARKS
 
LEXINGTON SUNNY 77 43 30 N6 30.16S  
#AJAX N/A 69 38 32 S1 30.28S  
#CONDON 5W N/A 70 41 35 E9 30.15F  
#FOSSIL SCHOOL N/A 71 47 42 CALM 30.09F  
#HEPPNER EOC N/A 76 45 33 CALM 29.99S  
#LEXINGTON 2SE N/A 77 48 36 CALM 30.08S  
#MIKKALO N/A 71 40 32 N2 30.23S  
#OLEX 4N N/A 71 43 36 N3 30.10S  
#RUGGS 5NE N/A 75 45 34 N6 30.33S  
#RUGGS 2SW N/A 73 49 43 NE1 30.07S  
 

 
 
ORZ502-503-281710-  
BLUE MOUNTAINS  
 
CITY SKY/WX TMP DP RH WIND PRES REMARKS
 
MEACHAM SUNNY 69 37 31 CALM 30.21S  
#GRANITE N/A 53 48 83 CALM 29.88F  
#GREENHORN 9SW N/A 61 46 58 CALM 30.22F  
#HARDMAN 10S N/A 65 42 43 SE1 30.17F  
#LONG CREEK HS N/A 62 47 58 CALM N/A  
#PIKES PEAK N/A 66 40 38 CALM 27.99S  
#SUMMERVILLE 5NWN/A 64 48 56 S3 30.22F  
#TOLLGATE N/A 64 40 41 SW2 30.09S  
#TROY SCHOOL N/A 62 50 65 CALM 29.99F  
#UKIAH N/A 57 47 69 CALM 30.07F  
#WESTON 4E N/A 72 45 38 S1 30.02S  

 
 
ORZ505-281710-  
JOHN DAY BASIN  
 
CITY SKY/WX TMP DP RH WIND PRES REMARKS
 
JOHN DAY SUNNY 68 41 37 CALM 30.21F  
#ANTELOPE 9ESE N/A 70 45 41 NE1 N/A  
#DAYVILLE SCHOOLN/A 63 41 44 CALM 30.15F  
#MITCHELL N/A 70 48 46 CALM 30.31S  
#MITCHELL 8NW N/A 69 41 36 CALM 30.05S  
#MONUMENT HS N/A 63 42 46 W2 30.13F  
#MT. VERNON 5SE N/A 67 44 43 E2 30.17F  
#SPRAY SCHOOL N/A 69 N/A N/A CALM N/A  

 
 
ORZ506-281710-  
OCHOCO AND JOHN DAY HIGHLANDS  
 
CITY SKY/WX TMP DP RH WIND PRES REMARKS
 
#HORSE RIDGE DO N/A 60 33 36 E3 N/A  
#PAULINA ODOT N/A 58 38 47 CALM N/A  
#PINE MTN OBS N/A 59 33 37 SE7 N/A  
#PRAIRIE CITY N/A 65 48 54 CALM 30.35F  
#SENECA N/A 56 N/A N/A CALM N/A  
#SENECA 9NW N/A 55 43 64 CALM 30.13F  

 
 
ORZ049-281710-  
GRANDE RONDE VALLEY  
 
CITY SKY/WX TMP DP RH WIND PRES REMARKS
 
LA GRANDE SUNNY 63 45 52 W3 30.21S  
#COVE N/A 60 51 72 CALM 30.23S  
#COVE SCHOOL N/A 61 46 58 CALM 30.21F  
#COVE 6NW N/A 59 47 64 CALM 30.15S  
#ELGIN 3N N/A 63 44 50 CALM 30.17S  
#ELGIN 1E N/A 59 46 62 CALM N/A  
#IMBLER SCHOOL N/A 62 45 54 CALM 30.16S  
#ISLAND CITY 4N N/A 60 56 87 CALM 30.11S  
#LA GRANDE-LEFFEN/A 67 49 52 S2 30.19F  
#UNION 1S N/A 60 47 62 S1 30.13F  

 
 
ORZ050-281710-  
WALLOWA COUNTY  
 
CITY SKY/WX TMP DP RH WIND PRES REMARKS
 
JOSEPH AIRPORT SUNNY 66 43 43 CALM 30.25S  
#ENTERPRISE HS N/A 65 47 52 CALM 30.01F  
#IMNAHA SCHOOL N/A 65 44 46 SE2 30.17F  
#IMNAHA 10S N/A 63 46 54 CALM 30.18F  
#JOSEPH N/A 64 45 50 CALM 30.20S  
#JOSEPH 3N N/A 61 43 51 CALM 30.24S  
#LOSTINE N/A 61 48 62 CALM 29.94F  
#LOSTINE 3SE N/A 65 44 46 N1 30.26F  
#MT HOWARD 8000 N/A 54 33 45 CALM 30.40F  
#PROMISE 1S N/A 64 47 54 CALM 30.19S  
#WALLOWA LAKE N/A 67 44 43 E1 30.27S  
#WALLOWA SCHOOL N/A 58 47 67 CALM 30.17F  
 

 
 
CLICK HERE TO GO TO PREVIOUS BULLETINS.

The Nexlab OR Page
The Nexlab WA Page Main Text Page